Regional Weather Roundup
Issued by NWS

Home | Current Version | Previous Version | Graphics & Text | Print | Product List | Glossary On
Versions: 1 2 3 4 5 6 7 8 9 10 11 12 13 14 15 16 17 18 19 20 21 22 23 24 25 26 27 28 29 30 31 32 33 34 35 36 37 38 39 40 41 42 43 44 45 46 47 48 49 50
714
ASUS43 KLOT 300203
RWRIL

ILLINOIS REGIONAL WEATHER ROUNDUP
NATIONAL WEATHER SERVICE CHICAGO/ROMEOVILLE IL
900 PM CDT THU SEP 29 2016

NOTE: "FAIR" INDICATES FEW OR NO CLOUDS BELOW 12,000 FEET WITH NO
SIGNIFICANT WEATHER AND/OR OBSTRUCTIONS TO VISIBILITY.

* THESE STATIONS ARE NOT UNDER NWS QUALITY CONTROL. THEY ALSO MAY NOT
  REPORT WEATHER SUCH AS PRECIPITATION OR FOG.

ILZ001-002-007-009-015-016-024-300300-
NORTHWEST ILLINOIS

CITY           SKY/WX    TMP DP  RH WIND       PRES   REMARKS
MOLINE         CLOUDY    66  53  63 NE6       30.26R
STERLING*      CLOUDY    63  55  75 N6        30.26S
$$

ILZ003-004-008-010-011-017-018-300300-
NORTH CENTRAL ILLINOIS

CITY           SKY/WX    TMP DP  RH WIND       PRES   REMARKS
ROCKFORD       MOCLDY    63  55  75 NE9       30.28F
FREEPORT*      CLEAR     58  53  81 N3        30.29S
ROCHELLE*      CLOUDY    62  55  78 NE12      30.26S
$$

ILZ005-006-012>014-019>023-300300-
NORTHEAST ILLINOIS

CITY           SKY/WX    TMP DP  RH WIND       PRES   REMARKS
CHICAGO-OHARE  CLOUDY    63  57  81 NE13      30.23S
CHICAGO-MIDWAY CLOUDY    64  57  78 NE16      30.21F
AURORA         CLOUDY    63  58  83 N7        30.23S
LANSING*       CLOUDY    62  59  90 NE10G17   30.21S
WAUKEGAN       CLOUDY    63  57  81 NE12G18   30.25S
DUPAGE AIRPORT CLOUDY    62  57  83 N10       30.23S
KANKAKEE*      CLOUDY    61  58  90 N9G16     30.19S
WHEELING       CLOUDY    63  57  81 NE12      30.25S
NORTHERLY ISL    N/A     62  57  83 NE15        N/A
$$

LMZ740>746-300300-
SOUTHERN LAKE MICHIGAN

STATION/POSITION SKY/WX   TEMP    WIND        PRES    VSBY  WAVE
                          AIR SEA DIR/SP/G                  HT/PER
                          (F)     (DEG/KT/KT) (MB)    (MI)  (FT/S)
SOUTHERN BUOY              64 68   70/ 23/ 27 1023.2          6/ 5
WILMETTE HARBOR            62 56   80/ 14/ 19   N/A           6/ 6
HARRISON CRIB              64      50/ 21/ 22   N/A
BURNHAM HARBOR             62      40/ 12/ 19   N/A
CALUMET HARBOR             63      30/ 12/ 18 1022.6S
BURNS HARBOR               62      50/ 18/ 21 1022.7S
MICHIGAN CITY              61      20/ 20/ 21   N/A
MICHIGAN CITY 6N           62 65   40/ 16/ 19   N/A           6/ 6
ST. JOSEPH                 59 60   20/ 10/ 12 1022.9R         4/ 6
$$

ILZ025>027-034>036-040-047-049-050-058-095>099-300300-
WEST-CENTRAL ILLINOIS

CITY           SKY/WX    TMP DP  RH WIND       PRES   REMARKS
QUINCY         CLOUDY    66  56  70 NE13      30.22R
GALESBURG*     MOCLDY    63  55  75 N9        30.24S
MACOMB*        PTCLDY    63  55  74 NE12      30.25S
$$

ILZ028>032-037-038-041>044-048-051>054-059>061-300300-
CENTRAL ILLINOIS

CITY           SKY/WX    TMP DP  RH WIND       PRES   REMARKS
BLOOMINGTON    CLEAR     60  58  92 N15G22    30.19R
DECATUR        CLOUDY    62  58  86 N10       30.16S
PEORIA         CLEAR     62  58  86 NE10G23   30.21S
LINCOLN*       PTCLDY    60  60  97 N8        30.18S
SPRINGFIELD    CLOUDY    61  58  90 N12       30.19R
TAYLORVILLE    NOT AVBL
$$

ILZ033-039-045-046-055>057-062-063-300300-
EAST-CENTRAL ILLINOIS

CITY           SKY/WX    TMP DP  RH WIND       PRES   REMARKS
CHAMPAIGN      PTCLDY    62  58  86 N13       30.15S
MATTOON        PTCLDY    59  54  83 N6        30.13R
$$

ILZ079-100>102-300300-
SOUTHWEST ILLINOIS

CITY           SKY/WX    TMP DP  RH WIND       PRES   REMARKS
ALTON          CLOUDY    59  59 100 N6        30.18R
BELLEVILLE     CLEAR     60  60  99 N3        30.15R
CAHOKIA*       CLOUDY    62  59  90 N9        30.17S
SPARTA*        CLOUDY    59  58  96 NW3       30.16S
$$

ILZ064>066-069>071-074>076-080>082-084>086-088>090-092>094-300300-
SOUTH-CENTRAL ILLINOIS

CITY           SKY/WX    TMP DP  RH WIND       PRES   REMARKS
CARBONDALE     CLEAR     57  57 100 W3        30.14S
MT. VERNON     CLEAR     57  52  82 CALM      30.14S
CENTRALIA*     PTCLDY    60  60  97 NW6       30.14R
SALEM*         MOCLDY    62  58  90 N6        30.15R
METROPOLIS*    PTCLDY    58  56  93 CALM      30.14S
$$

ILZ067-068-072-073-078-083-087-091-300300-
SOUTHEAST ILLINOIS

CITY           SKY/WX    TMP DP  RH WIND       PRES   REMARKS
LAWRENCEVILLE  CLEAR     57  53  86 CALM      30.12R
FLORA*         MOCLDY    61  58  89 NW8       30.12S
HARRISBURG*    CLEAR     58  56  96 NW6       30.13S
ROBINSON*      PTCLDY    51  50  95 CALM      30.13R
$$

ABBREVIATIONS USED IN REMARKS
   TC - TEMPERATURE IN CELSIUS
  WCI - WIND CHILL INDEX
   HX - HEAT INDEX
  VSB - VISIBILITY
$$





USA.gov is the U.S. government's official web portal to all federal, state and local government web resources and services.